Regional Weather Roundup
Issued by NWS

Home | Current Version | Previous Version | Text Only | Print | Product List | Glossary Off
Versions: 1 2 3 4 5 6 7 8 9 10 11 12 13 14 15 16 17 18 19 20 21 22 23 24 25 26 27 28 29 30 31 32 33 34 35 36 37 38 39 40 41 42 43 44 45 46 47 48 49 50

000
ASUS43 KLSX 101107
RWRMO

WEATHER SUMMARY FOR MISSOURI
NATIONAL WEATHER SERVICE SPRINGFIELD MO
600 AM CDT THU JUL 10 2014

NOTE: "FAIR" INDICATES FEW OR NO CLOUDS BELOW 12,000 FEET WITH NO
       SIGNIFICANT WEATHER AND/OR OBSTRUCTIONS TO VISIBILITY.
       CURRENT SKY AND/OR WEATHER CONDITIONS ARE NOT AVAILABLE FOR
       CHILLICOTHE AND FARMINGTON.

MOZ001>031-035>038-043-044-053-054-101200-
...NORTHERN AND WESTERN MISSOURI...

CITY           SKY/WX    TMP DP  RH WIND       PRES   REMARKS
KANSAS CTY INT MOCLDY    67  58  72 SE8       30.06R
KANSAS C DTWN  PTCLDY    72  57  59 SE3       30.05R
LEE`S SUMMIT   PTCLDY    68  58  70 SE7       30.07R
ST JOSEPH      PTCLDY    69  58  67 S8        30.05R
CHILLICOTHE      N/A     66  60  81 SE5       30.09R
KIRKSVILLE     CLEAR     58  56  93 CALM      30.11R

$$
MOZ066>068-077>081-088>096-101>105-101200-
...SOUTHWEST MISSOURI...

CITY           SKY/WX    TMP DP  RH WIND       PRES   REMARKS
SPRINGFIELD    CLEAR     64  59  83 SE7       30.07R
JOPLIN         CLOUDY    68  59  73 SE8       30.03R

$$
MOZ032>034-039>042-045>050-055>058-069>072-101200-
...CENTRAL MISSOURI...

CITY           SKY/WX    TMP DP  RH WIND       PRES   REMARKS
COLUMBIA       PTCLDY    62  58  86 E6        30.09R
JEFFERSON CITY PTCLDY    62  59  90 CALM      30.08R
ROLLA            N/A    N/A N/A N/A MISG      30.08R
SEDALIA        MOCLDY    64  60  87 SE5       30.09R
WHITEMAN AFB   CLEAR     64  54  71 E3        30.07R
OSAGE BEACH    MOCLDY    61  55  82 CALM      30.09R

$$
MOZ051-052-059>065-101200-
...EAST CENTRAL MISSOURI...

CITY           SKY/WX    TMP DP  RH WIND       PRES   REMARKS
ST LOUIS INTL  PTCLDY    66  59  78 CALM      30.09R
SPIRIT OF STL  PTCLDY    57  56  96 CALM      30.08R
ST CHARLES     PTCLDY    62  56  80 CALM      30.08R

$$
MOZ072>076-082>087-097>100-106>115-101200-
...SOUTH CENTRAL AND SOUTHEAST MISSOURI...

CITY           SKY/WX    TMP DP  RH WIND       PRES   REMARKS
CAPE GIRARDEAU CLEAR     65  63  93 CALM      30.05R
FARMINGTON     CLEAR     59  57  94 CALM      30.11R
POPLAR BLUFF   PTCLDY    65  60  84 CALM      30.04R
WEST PLAINS    CLEAR     60  57  89 CALM      30.09R

$$



USA.gov is the U.S. government's official web portal to all federal, state and local government web resources and services.